Location: Newark
(45.8833°N, 13.5000°E)
Time: 13:32:11
(UTC+00:00)

OTV 5 (USA 277) - Visible Passes

Search period start: 25 August 2019 00:00
Search period end: 04 September 2019 00:00
Orbit: 305 x 329 km, 54.5° (Epoch: 20 August)

Date Brightness Start Highest point End Pass type
(mag) Time Alt. Az. Time Alt. Az. Time Alt. Az.
25 Aug ? 19:44:39 10° WSW 19:47:17 50° NNW 19:48:20 29° NNE visible
26 Aug ? 18:25:03 10° SSW 18:27:36 37° SE 18:30:08 10° ENE visible
26 Aug ? 19:59:36 10° W 20:01:58 26° NNW 20:02:59 20° NNE visible
27 Aug ? 18:39:23 10° WSW 18:42:06 80° NW 18:44:47 10° NE visible
27 Aug ? 20:14:49 10° WNW 20:16:46 18° NNW 20:17:20 17° N visible
28 Aug ? 18:54:11 10° W 18:56:44 35° NNW 18:59:14 10° NE visible
28 Aug ? 20:30:04 10° NW 20:31:29 14° N 20:31:29 14° N visible
29 Aug ? 19:09:18 10° WNW 19:11:28 21° NNW 19:13:37 10° NE visible
29 Aug ? 20:45:06 10° NNW 20:45:30 11° NNW 20:45:30 11° NNW visible
30 Aug ? 19:24:33 10° NW 19:26:18 15° N 19:28:02 10° NNE visible
31 Aug ? 19:39:44 10° NW 19:41:11 13° N 19:42:27 11° NNE visible
01 Sep ? 18:19:00 10° WNW 18:20:59 18° NNW 18:22:56 10° NNE visible
01 Sep ? 19:54:34 10° NNW 19:56:05 14° N 19:56:19 14° NNE visible
02 Sep ? 18:34:15 10° NW 18:35:50 14° N 18:37:25 10° NNE visible
02 Sep ? 20:09:06 10° NNW 20:10:09 15° N 20:10:09 15° N visible
03 Sep ? 18:49:17 10° NNW 18:50:44 13° N 18:52:10 10° NNE visible
03 Sep ? 20:23:29 10° NW 20:23:59 13° NNW 20:23:59 13° NNW visible
